Regional Weather Roundup
Issued by NWS Little Rock, AR

Home | Current Version | Previous Version | Text Only | Print | Product List | Glossary On
Versions: 1 2 3 4 5 6 7 8 9 10 11 12 13 14 15 16 17 18 19 20 21 22 23 24 25 26 27 28 29 30 31 32 33 34 35 36 37 38 39 40 41 42 43 44 45 46 47 48 49 50
000
ASUS44 KLZK 171805
RWRLZK

WEATHER ROUNDUP FOR ARKANSAS
NATIONAL WEATHER SERVICE LITTLE ROCK AR
100 PM CDT WED SEP 17 2014

NOTE: "FAIR" INDICATES FEW OR NO CLOUDS BELOW 12,000 FEET WITH NO
SIGNIFICANT WEATHER AND/OR OBSTRUCTIONS TO VISIBILITY.

ARZ001-003-010-029-171900-
NORTHWEST ARKANSAS

CITY           SKY/WX    TMP DP  RH WIND       PRES   REMARKS
FAYETTEVILLE   FAIR      81  71  71 SW14      29.97F HX  85
6HR MIN TEMP:  67; 6HR MAX TEMP:  81;

FORT SMITH     FAIR      79  69  71 NE10      29.96F
6HR MIN TEMP:  70; 6HR MAX TEMP:  79;

HARRISON       CLOUDY    71  67  87 E8        29.99F
6HR MIN TEMP:  66; 6HR MAX TEMP:  71;

BENTONVILLE    PTSUNNY   82  70  65 SW10      29.96F HX  86
6HR MIN TEMP:  66; 6HR MAX TEMP:  82;

ROGERS         PTSUNNY   83  70  64 SW13G21   29.96F HX  87
6HR MIN TEMP:  69; 6HR MAX TEMP:  83;

SILOAM SPGS    PTSUNNY   82  70  65 SW7       29.97F HX  86
6HR MIN TEMP:  66; 6HR MAX TEMP:  82;

HIGHFILL       FAIR      82  70  66 SW12      29.95F HX  86
6HR MIN TEMP:  67; 6HR MAX TEMP:  83;

SPRINGDALE     PTSUNNY   82  72  69 SW14      29.99S HX  87
$$

ARZ004-005-016-171900-
NORTH CENTRAL ARKANSAS

CITY           SKY/WX    TMP DP  RH WIND       PRES   REMARKS
BATESVILLE     CLOUDY    66  61  82 NE7       30.03R
6HR MIN TEMP:  63; 6HR MAX TEMP:  66;

FLIPPIN        CLOUDY    66  57  72 E5        30.01R
6HR MIN TEMP:  64; 6HR MAX TEMP:  68;

MTN HOME       CLOUDY    65  62  90 SE6       30.00F
6HR MIN TEMP:  62; 6HR MAX TEMP:  65; 6HR PCP:  0.06;

$$

ARZ040-041-171900-
WEST CENTRAL ARKANSAS

CITY           SKY/WX    TMP DP  RH WIND       PRES   REMARKS
MENA           PTSUNNY   86  73  66 CALM      29.99F HX  93
MOUNT IDA      PTSUNNY   83  70  64 VRB3      29.96F HX  87
6HR MIN TEMP:  64; 6HR MAX TEMP:  83;

$$

ARZ009-017-025-026-028-171900-
NORTHEAST ARKANSAS

CITY           SKY/WX    TMP DP  RH WIND       PRES   REMARKS
CORNING        LGT RAIN  59  59 100 W8        30.06R
JONESBORO      CLOUDY    65  59  81 CALM      30.04R
6HR MIN TEMP:  61; 6HR MAX TEMP:  66;

NEWPORT        CLOUDY    67  62  84 N6        30.04S
6HR MIN TEMP:  62; 6HR MAX TEMP:  67;

WALNUT RIDGE   CLOUDY    61  57  88 NW17      30.11R
6HR MIN TEMP:  61; 6HR MAX TEMP:  63; 6HR PCP:  0.08;

BLYTHEVILLE    CLOUDY    68  58  70 NE7       30.02F
6HR MIN TEMP:  59; 6HR MAX TEMP:  69;

$$

ARZ022-023-033-042-044-171900-
CENTRAL ARKANSAS

CITY           SKY/WX    TMP DP  RH WIND       PRES   REMARKS
LITTLE ROCK    CLOUDY    79  66  64 VRB5      30.00F
6HR MIN TEMP:  63; 6HR MAX TEMP:  80;

N LITTLE ROCK  CLOUDY    80  69  70 SE7       30.00F
6HR MIN TEMP:  62; 6HR MAX TEMP:  80;

JACKSONVILLE   CLOUDY    79  67  66 VRB3      30.00F
6HR MIN TEMP:  63; 6HR MAX TEMP:  79;

SEARCY         CLOUDY    73  64  73 CALM      30.02F
6HR MIN TEMP:  62; 6HR MAX TEMP:  73;

HOT SPRINGS    FAIR      81  69  67 MISG      29.99F
6HR MIN TEMP:  63; 6HR MAX TEMP:  81;

RUSSELLVILLE     N/A    N/A N/A N/A MISG      29.99F
CLINTON        CLOUDY    72  66  83 SE6       30.01F HAZE
$$

ARZ036-171900-
EAST ARKANSAS

CITY           SKY/WX    TMP DP  RH WIND       PRES   REMARKS
WEST MEMPHIS   FAIR      73  61  65 E7        29.99F
6HR MIN TEMP:  64; 6HR MAX TEMP:  73;

$$

ARZ050-053-066-070-073-171900-
SOUTHWEST ARKANSAS

CITY           SKY/WX    TMP DP  RH WIND       PRES   REMARKS
ARKADELPHIA    FAIR      84  71  65 VRB3      29.98F HX  88
6HR MIN TEMP:  65; 6HR MAX TEMP:  84;

CAMDEN         FAIR      90  68  48 SW5       29.97F HX  93
TEXARKANA      FAIR      84  74  71 CALM      29.97F HX  91
6HR MIN TEMP:  68; 6HR MAX TEMP:  85;

EL DORADO      FAIR      84  69  60 E3        29.98F HX  88
6HR MIN TEMP:  68; 6HR MAX TEMP:  86;

DE QUEEN       FAIR      79  71  76 VRB3      29.96F
6HR MIN TEMP:  69; 6HR MAX TEMP:  79;

$$

ARZ056-057-069-171900-
SOUTHEAST ARKANSAS

CITY           SKY/WX    TMP DP  RH WIND       PRES   REMARKS
PINE BLUFF     PTSUNNY   82  68  62 CALM      29.98F HX  85
6HR MIN TEMP:  64; 6HR MAX TEMP:  82;

STUTTGART      CLOUDY    79  66  65 SE5       30.00F
6HR MIN TEMP:  63; 6HR MAX TEMP:  81;

MONTICELLO     PTSUNNY   84  69  60 VRB3      29.97F HX  88
6HR MIN TEMP:  67; 6HR MAX TEMP:  85;


$$




USA.gov is the U.S. government's official web portal to all federal, state and local government web resources and services.